EHI
69 65 62 60 55 48 43 40 38 37 39 43 45 44 41 39 37 36 33 31 29 27 24 22 20 18 16 13 11 10 10 10 8 7 10 15 18 19 17 18 17 13 10
69 66 64 60 57 52 47 43 41 40 41 44 46 44 41 40 40 37 33 31 31 28 24 21 19 17 16 14 12 11 11 11 9 9 10 14 19 21 21 20 15 11 11
68 67 64 61 59 57 53 48 46 45 45 46 46 43 42 41 40 36 31 30 32 30 24 21 18 17 16 14 12 13 13 12 13 13 13 14 18 22 22 19 12 8 7
68 66 63 60 59 58 56 54 52 51 51 50 48 45 43 40 36 32 29 29 31 30 26 23 20 18 16 13 12 14 14 14 15 16 15 14 15 17 18 15 11 6 5
67 65 62 59 58 57 57 58 58 57 55 54 51 46 41 35 30 29 29 30 30 30 28 25 21 17 13 10 9 11 12 12 14 16 15 13 10 9 10 9 7 5 4
63 61 59 57 57 57 58 58 59 58 56 56 52 47 39 29 22 22 26 30 31 30 28 25 19 13 9 7 5 5 6 7 10 12 13 10 7 4 3 3 3 2 2
58 58 56 54 56 58 58 58 57 56 55 55 52 47 38 26 15 11 17 27 31 30 27 24 18 11 8 7 5 4 3 2 4 7 9 8 5 2 2 3 2 1 0
56 57 54 52 54 56 57 56 55 54 54 53 51 46 37 26 13 5 10 21 28 27 26 23 18 13 9 8 8 7 5 2 0 2 4 3 2 2 3 3 2 1 0
56 56 54 52 53 53 53 54 54 53 52 51 49 43 34 24 13 4 7 18 24 24 23 20 17 13 8 6 8 10 9 6 3 2 1 1 0 1 1 1 1 0 0
53 51 50 50 49 47 47 48 47 46 46 46 43 38 31 21 11 4 6 16 24 24 20 17 13 9 5 3 6 10 10 9 6 3 1 0 0 0 0 0 0 0 0
47 44 42 42 40 37 37 37 38 37 37 37 36 32 26 18 9 4 4 11 18 20 19 15 9 4 2 1 4 6 7 7 7 5 2 1 0 0 0 0 0 0 0
38 36 34 35 33 31 30 30 31 32 32 32 30 26 22 16 10 4 3 5 9 14 16 13 6 2 0 0 1 2 2 2 3 4 2 1 0 0 0 0 0 0 0
29 28 27 28 29 30 29 27 27 29 30 29 26 22 19 16 11 6 2 1 3 7 9 7 3 1 0 0 0 0 0 0 1 1 1 0 0 0 0 0 0 1 1
24 23 23 23 26 28 28 25 24 25 26 25 23 19 17 15 12 8 5 3 2 3 4 4 2 0 0 0 0 0 0 0 0 0 0 0 0 0 0 0 0 0 0
20 21 21 22 23 24 24 21 20 19 20 20 20 18 16 13 11 8 6 5 4 3 3 3 2 1 0 0 0 0 0 0 0 1 0 0 0 0 0 0 0 0 0
17 18 20 21 21 21 20 17 14 12 11 12 14 14 12 10 7 5 3 3 3 3 3 3 3 2 2 2 1 0 0 0 0 0 0 0 0 0 0 0 0 0 0
17 17 17 17 17 19 19 17 13 10 7 6 7 7 6 5 3 1 0 1 1 2 3 3 3 3 3 3 2 1 1 1 1 0 0 0 0 0 0 0 0 0 0
17 16 16 14 14 16 18 17 15 12 9 7 5 3 2 1 1 0 0 1 1 2 3 3 3 3 3 4 3 2 2 2 1 0 0 0 0 0 0 0 0 0 0
15 15 14 11 11 12 14 16 15 13 11 9 7 3 1 0 0 0 1 2 3 3 3 3 3 3 4 4 5 3 2 1 0 0 0 0 0 0 0 0 0 0 0
13 11 10 8 8 10 12 13 13 11 10 10 9 6 2 1 1 0 1 3 3 3 3 3 3 3 4 4 4 2 1 0 0 0 0 0 0 0 0 0 0 0 0
10 8 5 5 7 10 10 11 11 10 10 10 9 7 3 2 2 1 2 3 3 3 3 3 3 3 4 3 2 1 0 0 0 0 0 1 0 0 0 0 0 0 0
9 7 5 4 7 9 10 9 8 8 8 8 8 5 3 3 3 1 1 3 3 3 3 3 3 2 3 2 1 0 0 0 0 0 0 0 0 0 0 0 0 0 0
8 7 5 5 6 7 8 8 6 5 5 6 5 4 3 3 3 1 1 2 2 2 2 2 1 1 1 1 0 0 0 0 0 0 0 0 0 0 0 0 0 0 0
7 6 6 6 6 7 7 7 5 3 3 4 4 4 4 3 2 2 1 1 1 1 1 1 0 0 1 1 0 0 0 0 0 0 0 0 0 0 0 0 0 0 0
6 6 6 6 6 6 7 6 4 3 3 3 4 5 4 2 1 2 2 1 1 1 0 0 1 1 1 1 0 0 0 0 0 0 0 0 0 0 0 0 0 0 0
5 6 6 6 6 6 6 6 4 3 2 3 6 7 5 1 1 2 3 2 2 2 1 1 2 2 1 0 0 0 0 0 0 0 0 0 0 0 0 0 0 0 0
Wind_Speed
10 8 7 8 8 7 5 4 4 3 3 3 3 3 3 3 3 3 3 3 2 2 2 2 2 2 2 2 2 1 2 2 3 3 1 1 1 1 1 2 3 4 4
9 8 7 7 7 7 6 5 4 4 4 4 3 3 4 3 3 3 3 3 3 3 2 2 2 2 2 3 2 2 2 2 2 4 2 2 2 1 2 2 2 3 3
9 9 8 8 7 7 6 6 5 5 4 4 4 4 4 3 3 3 3 3 3 3 2 2 3 3 2 2 3 3 3 3 2 3 3 2 2 2 2 2 2 1 3
9 10 9 8 7 7 7 6 6 6 5 5 5 4 4 3 3 3 3 3 3 3 3 2 3 2 2 3 3 3 3 3 3 3 3 2 1 2 2 2 2 1 2
7 8 9 8 7 6 6 6 6 6 7 5 5 5 4 4 4 3 3 4 3 3 3 2 2 1 1 2 3 2 3 3 3 2 2 2 2 2 2 2 2 2 2
6 7 7 7 7 7 6 6 6 6 5 5 5 5 5 5 3 3 3 3 3 3 3 2 2 2 2 3 2 2 3 3 3 2 2 2 2 2 2 3 2 2 2
5 5 6 6 6 6 7 6 6 5 4 4 4 4 4 3 4 4 4 3 3 3 3 2 4 2 1 1 1 2 2 3 4 3 2 2 2 2 2 3 2 3 3
4 4 4 5 5 5 5 5 5 4 4 4 3 3 3 3 3 3 4 5 4 3 3 3 2 1 2 1 1 1 1 2 2 2 1 2 2 2 3 4 4 4 4
4 4 4 4 4 4 5 5 4 4 4 4 3 3 3 2 2 2 3 3 3 2 2 1 1 1 0 1 1 1 1 1 1 0 1 1 2 3 3 2 2 2 3
2 2 2 2 3 3 3 3 3 3 3 3 3 2 2 2 2 2 3 2 2 2 1 1 1 2 2 1 1 1 1 1 1 1 1 2 2 3 3 2 2 2 2
2 2 2 2 3 3 3 3 3 4 4 3 3 2 2 3 3 2 2 2 2 2 1 1 1 2 2 1 1 0 1 2 2 2 1 2 2 2 1 2 2 2 2
2 2 3 2 3 3 3 3 4 4 4 3 2 2 2 3 3 3 3 2 2 2 1 0 1 2 2 2 1 1 1 2 2 1 1 1 1 1 1 2 2 2 3
2 2 2 2 1 2 3 4 4 3 3 3 3 3 2 2 3 4 3 2 1 1 1 2 2 2 1 1 2 2 2 2 1 1 2 2 1 1 1 1 2 2 3
2 2 2 2 2 1 1 2 3 3 3 2 2 2 2 2 2 2 2 1 1 1 1 2 2 1 1 0 0 1 1 1 1 1 2 1 1 1 1 1 1 2 2
2 2 2 2 2 2 2 1 2 2 2 3 2 2 2 2 1 2 2 1 1 1 1 1 1 1 1 1 1 0 0 0 1 1 1 1 1 1 2 2 2 2 2
3 3 2 2 2 3 3 3 5 3 4 4 2 2 2 3 5 4 3 3 2 2 1 1 1 1 1 1 1 1 1 1 1 1 1 1 1 2 2 2 2 2 2
3 2 2 2 2 2 3 3 3 3 4 5 4 5 4 4 4 4 3 2 2 2 1 2 1 1 1 1 1 1 1 0 1 1 1 1 1 2 2 2 1 2 2
2 2 2 2 2 3 3 3 3 4 3 2 2 4 5 5 4 4 3 2 1 2 2 2 1 1 1 1 1 1 1 1 1 1 1 2 2 2 2 2 1 2 3
2 2 2 2 2 2 2 2 2 3 3 3 2 2 3 4 3 3 3 2 2 2 2 1 1 1 0 0 0 0 1 1 1 2 2 2 2 2 2 3 2 2 3
1 1 1 1 1 2 2 2 2 2 3 3 3 3 4 3 3 3 2 2 2 1 1 1 0 0 1 1 1 1 1 1 1 2 2 2 2 2 3 3 3 2 2
2 2 2 2 2 2 2 2 2 2 2 3 3 4 5 4 3 3 3 3 2 1 1 0 0 0 0 0 0 1 1 1 1 2 2 2 3 3 3 3 3 3 2
1 2 2 1 1 1 2 2 2 2 2 2 3 4 6 3 3 3 3 2 2 1 1 1 0 0 0 0 0 0 1 1 2 2 3 3 3 3 3 3 3 3 3
2 2 2 2 1 2 2 2 2 2 2 2 2 3 4 3 2 2 2 2 1 1 1 1 0 0 0 1 1 1 1 1 2 2 3 3 3 3 3 3 4 4 4
3 3 3 2 2 2 2 2 2 2 2 2 1 2 2 2 2 2 2 1 1 1 1 1 0 0 1 1 1 2 2 1 2 2 3 4 4 4 3 3 4 4 4
2 2 2 2 2 2 2 2 2 2 2 2 2 2 2 2 2 2 2 2 2 1 1 1 1 0 1 1 2 2 2 2 1 3 3 4 4 4 4 5 4 4 4
2 1 1 1 1 1 2 2 2 2 2 2 2 2 1 1 1 1 1 1 1 1 0 0 1 2 1 1 3 3 3 1 0 2 3 4 4 4 4 4 5 4 5
Wind_Direction
183 186 187 185 188 194 196 194 189 198 192 187 184 184 188 188 188 205 221 211 226 247 256 254 274 302 303 303 297 270 250 234 253 265 250 269 271 257 200 215 198 182 186
179 180 185 184 184 190 189 191 188 191 201 193 186 189 198 187 190 205 221 222 215 228 243 249 258 263 273 297 297 283 271 245 245 265 261 263 259 246 236 247 232 212 199
179 181 184 188 187 189 190 188 189 190 199 197 190 200 205 201 201 215 220 227 230 228 234 249 264 273 272 278 281 280 279 274 255 258 260 244 247 256 254 261 256 259 239
183 184 186 188 189 191 192 190 189 192 198 199 197 203 208 203 209 219 228 239 243 238 236 244 256 258 270 277 271 267 268 276 267 263 266 259 258 269 259 242 262 255 261
180 182 183 184 183 189 193 190 193 197 202 196 200 205 206 212 223 218 224 233 235 242 241 240 255 268 302 283 283 298 289 279 274 266 264 281 290 301 291 287 267 260 258
180 184 180 181 185 191 194 192 192 197 203 200 204 205 213 224 204 212 227 242 235 239 243 237 235 220 214 222 252 282 282 271 274 277 267 266 269 286 304 304 305 296 279
178 181 178 184 192 197 201 196 196 196 200 204 212 210 212 205 209 217 226 233 237 236 235 245 266 261 218 226 256 267 286 271 247 250 270 280 280 287 292 295 292 278 265
172 177 172 181 190 192 193 193 192 187 196 205 213 214 211 215 214 223 233 235 242 236 227 234 241 254 280 276 264 283 299 303 277 243 254 287 302 299 275 260 261 266 264
176 170 173 182 186 188 192 188 179 177 187 199 205 205 203 200 199 211 225 244 243 237 226 234 216 189 351 337 236 242 256 261 277 342 360 316 314 316 309 294 280 274 279
163 148 143 157 179 188 185 181 173 181 191 196 191 193 186 164 170 190 214 249 254 241 207 191 153 146 147 152 229 244 267 295 314 284 303 286 271 272 274 270 287 287 290
134 139 149 164 185 185 182 180 176 189 191 191 183 179 155 151 162 183 201 243 257 248 228 210 174 153 144 151 186 230 254 291 286 259 242 244 255 257 254 253 253 269 281
136 146 152 177 206 184 175 187 191 192 188 181 179 182 166 156 158 174 196 226 262 256 255 148 134 166 167 178 183 232 290 295 279 291 282 263 244 249 254 256 250 249 248
136 147 157 178 188 178 184 189 188 186 189 186 181 187 178 163 153 148 175 220 259 284 41 94 115 135 158 164 191 241 267 265 270 284 289 292 283 269 263 256 256 253 261
151 152 162 174 179 159 176 190 180 176 180 177 188 190 184 174 157 150 162 155 147 139 111 115 117 150 193 104 188 235 244 295 310 305 312 316 320 317 287 274 269 270 268
155 166 183 186 170 134 143 130 159 136 163 179 197 198 183 163 161 144 149 154 159 161 158 165 144 134 157 156 146 185 259 284 307 308 310 312 311 311 311 302 279 275 277
185 198 198 187 165 166 161 126 65 84 107 116 126 136 110 132 138 126 120 120 136 144 142 187 191 187 182 182 181 216 248 262 288 304 316 317 314 308 307 312 309 295 288
193 196 198 190 169 178 178 168 146 94 84 88 106 113 125 139 134 129 120 114 145 143 169 223 225 205 184 210 217 251 269 256 245 281 299 307 305 308 304 299 307 312 308
198 183 195 187 182 184 182 176 162 159 149 127 111 138 152 156 151 149 142 118 155 184 212 223 219 209 197 210 232 253 283 299 308 296 305 315 318 318 316 310 303 310 310
202 195 192 183 181 179 161 159 164 161 153 146 133 136 159 154 147 157 157 179 201 213 218 222 228 240 244 200 88 317 310 331 349 333 325 327 326 319 317 315 309 305 299
172 143 171 203 193 166 163 180 172 161 161 158 164 159 153 157 165 164 184 212 232 231 227 222 210 345 8 25 11 340 332 344 347 338 334 329 326 324 319 314 311 305 297
174 171 189 217 215 181 174 177 179 183 185 181 170 159 162 178 182 177 185 203 220 227 235 255 173 146 67 238 317 319 333 349 353 340 330 324 325 322 316 313 315 311 304
185 190 195 224 219 182 175 174 179 187 191 185 161 156 170 194 206 184 183 194 208 204 204 221 227 153 173 180 103 354 334 337 340 339 329 324 322 319 321 321 322 321 317
197 201 194 187 177 148 162 176 183 183 182 194 179 167 182 204 206 189 188 188 189 197 194 191 224 240 101 91 76 77 26 352 342 336 323 317 317 315 315 318 320 322 323
208 210 204 185 169 163 167 179 181 177 179 184 183 183 191 198 209 188 175 169 168 170 152 153 174 38 87 90 87 87 63 32 359 339 326 311 307 309 314 315 312 312 312
226 207 194 187 176 168 176 189 185 185 188 190 189 189 195 198 201 184 168 168 165 169 176 168 152 113 78 53 77 83 90 82 42 343 313 300 297 300 305 305 305 308 309
233 193 168 166 171 180 190 198 196 201 195 188 186 195 194 201 203 161 144 142 145 135 148 156 120 110 94 106 101 104 116 116 10 322 302 290 292 302 314 311 312 312 307